Location: Palomar Mountain Lodge
(33.3110°N, 116.8495°W)
Time: 03:32:23
(UTC-08:00)

Cosmos 1763 Rocket - Pass Details

Date: 12 July 2018
Orbit: 734 x 779 km, 74.0° (Epoch: 18 December)

Event Time Altitude Azimuth Distance (km) Brightness Sun altitude
Rises 22:01:14 0° 351° (N) 3,168 7.6 -21.3°
Reaches altitude 10° 22:03:42 10° 359° (N) 2,245 6.6 -21.7°
Maximum altitude 22:08:30 41° 69° (ENE) 1,059 4.0 -22.3°
Enters shadow 22:09:01 40° 85° (E) 1,081 4.0 -22.4°
